Regional Weather Roundup
Issued by NWS Green Bay, WI

Home | Current Version | Previous Version | Graphics & Text | Print | Product List | Glossary Off
Versions: 1 2 3 4 5 6 7 8 9 10 11 12 13 14 15 16 17 18 19 20 21 22 23 24 25 26 27 28 29 30 31 32 33 34 35 36 37 38 39 40 41 42 43 44 45 46 47 48 49 50

000
ASUS43 KGRB 011010
RWRGRB

NORTH-CENTRAL AND NORTHEAST WISCONSIN REGIONAL WEATHER ROUNDUP
NATIONAL WEATHER SERVICE GREEN BAY WI
500 AM CDT FRI AUG 01 2014

WIZ005-009-010>012-018-019-011100-
NORTH CENTRAL WISCONSIN

CITY           SKY/WX    TMP DP  RH WIND       PRES   REMARKS
IRONWOOD       NOT AVBL
MANITOWISH WTR FOG       49  49 100 CALM      30.03R VSB 1/2
ARBOR VITAE    CLEAR     52  45  76 CALM      30.03S
EAGLE RIVER    PTCLDY    48  48 100 CALM      30.03R FOG
LAND O LAKES   FOG       45  45 100 CALM      30.04R VSB 1/2
RHINELANDER    FOG       50  50 100 W3        30.04R VSB 1/4
PHILLIPS       FOG       52  52 100 CALM      30.02F VSB 1/2
ANTIGO         FOG       51  51 100 CALM      30.04S VSB 1/2
TOMAHAWK       MOCLDY    47  46  97 CALM      30.04S FOG
MERRILL        FOG       51  51 100 CALM      30.03S VSB 1/4
$$

WIZ013-073-011100-
NORTHEAST WISCONSIN

CITY           SKY/WX    TMP DP  RH WIND       PRES   REMARKS
IRON MOUNTAIN  CLEAR     51  49  92 CALM      30.01R FOG
MARINETTE      CLEAR     55  54  94 N3        29.99S
OCONTO         CLEAR     52  52 100 CALM      30.00S
$$

WIZ017-030-035>037-045-011100-
CENTRAL WISCONSIN

CITY           SKY/WX    TMP DP  RH WIND       PRES   REMARKS
MEDFORD        FOG       54  54 100 CALM      30.03S VSB 1/2
WAUSAU         CLEAR     58  56  93 CALM      30.01S FOG
MOSINEE        PTCLDY    55  55 100 CALM      30.04R FOG
MARSHFIELD     PTCLDY    61  57  87 CALM      30.02S
WISC RAPIDS    PTCLDY    58  57  97 CALM      30.03F
STEVENS POINT  PTCLDY    54  54  99 CALM      30.03S FOG
WAUPACA        CLEAR     59  57  93 CALM      30.02S
SHAWANO        FOG       57  56  94 CALM      30.01S VSB 3/4
CLINTONVILLE   PTCLDY    54  54 100 CALM      30.01S
$$

WIZ038-039-048-051-011100-
FOX VALLEY

CITY           SKY/WX    TMP DP  RH WIND       PRES   REMARKS
NWS GREEN BAY  CLEAR     57  56  96 S3        30.01S FOG
APPLETON       CLEAR     61  57  88 W8        30.02S
OSHKOSH        CLEAR     62  59  90 SW3       30.02R
FOND DU LAC    PTCLDY    62  57  83 SW7       30.04R
$$

WIZ022-050-052-011100-
EAST CENTRAL WISCONSIN

CITY           SKY/WX    TMP DP  RH WIND       PRES   REMARKS
STURGEON BAY   CLEAR     57  54  88 CALM      30.01R
MANITOWOC      CLEAR     59  58  96 CALM      30.02R FOG
SHEBOYGAN      CLEAR     58  56  93 SW5       30.02S
$$

LMZ563-521-522-541>543-011100-
LAKESHORE

STATION/POSITION TIME  TEMP    WIND        PRES    VSBY  WAVE
                       AIR SEA DIR/SP/G                  HT/PER
                 (UTC) (F)     (DEG/KT/KT) (MB)    (MI)  (FT/S)
SHEBOYGAN LKSHOR 1000   67     260/  9/ 10 1016.5R
KEWAUNEE LKSHORE 1000   59     300/  4/  6 1015.2S
ALGOMA MARINA    1000          320/  6/  6   N/A
NORTHPORT PIER   1000   60     150/  2/  2 1015.9S
N MID LAKE BUOY  1000   57 54  180/  2/  2 1015.5R         1/ 3
SISTER BAY LKSHO 0900   63        CALM       N/A
CHAMBERS ISLAND  1000   58        CALM     1015.9R
MENOMINEE LKSHOR 1000   62     310/  3/  4 1016.3S
$$



USA.gov is the U.S. government's official web portal to all federal, state and local government web resources and services.